METEOSAT-9 (MSG-2)

Last updated on Thu Jul 03 2025 00:02:22 GMT+0000 (Coordinated Universal Time)

1 28912U 05049B 25182.71915975 .00000123 00000+0 00000+0 0 9996 2 28912 8.5608 57.5223 0002324 3.1671 164.0533 1.00279103 3495
UTC large
Height (km)
Speed (km/s)
/
Latitude / Longitude
Inclination (degrees)
Orbital Period (minutes)
Azimuth
Elevation
Range (km)
Doppler Factor

Next 0 passes for location: London (51.5072 / 0.1276)

Sorry there are no passes over London.